Tiempo cada hora Czyczkowy

Hoy, 25 Junio, Viernes

Tiempo Temperatura Precipitaciones Viento Presión Humedad
00:00 +16°C° 0 mm 2 mps 749 mmHg 95%
01:00 +16°C° 0 mm 1 mps 749 mmHg 95%
02:00 +15°C° 0 mm 2 mps 748 mmHg 96%
03:00 +15°C° 0 mm 2 mps 748 mmHg 97%
04:00 +14°C° 0 mm 3 mps 748 mmHg 97%
05:00 +16°C° 0 mm 3 mps 748 mmHg 91%
06:00 +17°C° 0 mm 3 mps 748 mmHg 85%
07:00 +18°C° 0 mm 3 mps 749 mmHg 79%
08:00 +19°C° 0 mm 3 mps 749 mmHg 73%
09:00 +20°C° 0 mm 2 mps 749 mmHg 67%
10:00 +21°C° 0 mm 2 mps 749 mmHg 61%
11:00 +21°C° 0.1 mm 2 mps 749 mmHg 61%
12:00 +23°C° 0.1 mm 2 mps 749 mmHg 61%
13:00 +23°C° 0.1 mm 1 mps 749 mmHg 62%
14:00 +21°C° 0.5 mm 2 mps 749 mmHg 70%
15:00 +19°C° 0.5 mm 2 mps 749 mmHg 78%
16:00 +18°C° 0.5 mm 2 mps 749 mmHg 86%
17:00 +18°C° 0.1 mm 2 mps 749 mmHg 87%
18:00 +18°C° 0.1 mm 2 mps 749 mmHg 89%
19:00 +17°C° 0.1 mm 2 mps 749 mmHg 90%
20:00 +18°C° 0 mm 1 mps 749 mmHg 91%
21:00 +16°C° 0 mm 1 mps 749 mmHg 93%
22:00 +15°C° 0 mm 1 mps 750 mmHg 94%
23:00 +15°C° 0 mm 1 mps 750 mmHg 95%

Mañana, 26 Junio, Sábado

Tiempo Temperatura Precipitaciones Viento Presión Humedad
00:00 +14°C° 0 mm 2 mps 750 mmHg 95%
01:00 +14°C° 0 mm 2 mps 750 mmHg 96%
02:00 +13°C° 0 mm 2 mps 750 mmHg 96%
03:00 +13°C° 0 mm 2 mps 750 mmHg 97%
04:00 +13°C° 0 mm 2 mps 750 mmHg 97%
05:00 +14°C° 0 mm 2 mps 750 mmHg 91%
06:00 +16°C° 0 mm 2 mps 751 mmHg 85%
07:00 +17°C° 0 mm 3 mps 751 mmHg 80%
08:00 +19°C° 0 mm 3 mps 751 mmHg 70%
09:00 +21°C° 0 mm 3 mps 751 mmHg 60%
10:00 +22°C° 0 mm 3 mps 751 mmHg 50%
11:00 +24°C° 0 mm 3 mps 751 mmHg 47%
12:00 +25°C° 0 mm 3 mps 750 mmHg 44%
13:00 +25°C° 0 mm 3 mps 750 mmHg 41%
14:00 +25°C° 0 mm 3 mps 750 mmHg 43%
15:00 +24°C° 0 mm 3 mps 750 mmHg 45%
16:00 +24°C° 0 mm 3 mps 750 mmHg 47%
17:00 +23°C° 0 mm 2 mps 750 mmHg 52%
18:00 +21°C° 0 mm 2 mps 750 mmHg 57%
19:00 +20°C° 0 mm 2 mps 750 mmHg 62%
20:00 +18°C° 0 mm 2 mps 751 mmHg 70%
21:00 +16°C° 0 mm 2 mps 751 mmHg 78%
22:00 +14°C° 0 mm 1 mps 751 mmHg 85%
23:00 +14°C° 0 mm 1 mps 751 mmHg 87%

Pasado mañana, 27 Junio, Domingo

Tiempo Temperatura Precipitaciones Viento Presión Humedad
00:00 +13°C° 0 mm 1 mps 751 mmHg 90%
01:00 +13°C° 0 mm 1 mps 751 mmHg 92%
02:00 +13°C° 0 mm 1 mps 751 mmHg 91%
03:00 +12°C° 0 mm 1 mps 751 mmHg 91%
04:00 +12°C° 0 mm 1 mps 751 mmHg 90%
05:00 +14°C° 0 mm 1 mps 751 mmHg 80%
06:00 +16°C° 0 mm 1 mps 751 mmHg 69%
07:00 +19°C° 0 mm 2 mps 751 mmHg 59%
08:00 +20°C° 0 mm 2 mps 751 mmHg 53%
09:00 +23°C° 0 mm 2 mps 751 mmHg 48%
10:00 +24°C° 0 mm 2 mps 751 mmHg 42%
11:00 +25°C° 0 mm 2 mps 751 mmHg 40%
12:00 +26°C° 0 mm 2 mps 750 mmHg 37%
13:00 +27°C° 0 mm 2 mps 750 mmHg 34%
14:00 +27°C° 0 mm 2 mps 750 mmHg 36%
15:00 +27°C° 0 mm 3 mps 750 mmHg 38%
16:00 +26°C° 0 mm 3 mps 750 mmHg 39%
17:00 +25°C° 0 mm 2 mps 750 mmHg 47%
18:00 +24°C° 0 mm 2 mps 750 mmHg 55%
19:00 +21°C° 0 mm 2 mps 750 mmHg 63%
20:00 +20°C° 0 mm 2 mps 750 mmHg 70%
21:00 +19°C° 0 mm 1 mps 750 mmHg 76%
22:00 +16°C° 0 mm 1 mps 751 mmHg 83%
23:00 +16°C° 0 mm 1 mps 751 mmHg 84%

28 Junio, Lunes

Tiempo Temperatura Precipitaciones Viento Presión Humedad
00:00 +14°C° 0 mm 0 mps 751 mmHg 86%
01:00 +14°C° 0 mm 0 mps 751 mmHg 87%
02:00 +14°C° 0 mm 0 mps 751 mmHg 87%
03:00 +14°C° 0 mm 0 mps 750 mmHg 86%
04:00 +14°C° 0 mm 0 mps 750 mmHg 85%
05:00 +18°C° 0 mm 1 mps 750 mmHg 76%
06:00 +20°C° 0 mm 1 mps 751 mmHg 67%
07:00 +22°C° 0 mm 1 mps 751 mmHg 58%
08:00 +24°C° 0 mm 1 mps 751 mmHg 52%
09:00 +25°C° 0 mm 1 mps 751 mmHg 47%
10:00 +27°C° 0 mm 2 mps 751 mmHg 41%
11:00 +28°C° 0 mm 2 mps 750 mmHg 39%
12:00 +28°C° 0 mm 2 mps 750 mmHg 36%
13:00 +29°C° 0 mm 2 mps 750 mmHg 34%
14:00 +29°C° 0 mm 2 mps 750 mmHg 34%
15:00 +29°C° 0 mm 2 mps 750 mmHg 34%
16:00 +29°C° 0 mm 2 mps 749 mmHg 34%
17:00 +28°C° 0 mm 2 mps 749 mmHg 43%
18:00 +26°C° 0 mm 2 mps 749 mmHg 51%
19:00 +25°C° 0 mm 2 mps 749 mmHg 59%
20:00 +23°C° 0 mm 2 mps 749 mmHg 67%
21:00 +20°C° 0 mm 2 mps 749 mmHg 74%
22:00 +18°C° 0 mm 2 mps 749 mmHg 82%
23:00 +18°C° 0 mm 2 mps 749 mmHg 83%

29 Junio, Martes

Tiempo Temperatura Precipitaciones Viento Presión Humedad
00:00 +19°C° 0 mm 1 mps 749 mmHg 84%
01:00 +18°C° 0 mm 1 mps 748 mmHg 85%
02:00 +18°C° 0 mm 1 mps 748 mmHg 84%
03:00 +19°C° 0 mm 1 mps 748 mmHg 82%
04:00 +19°C° 0 mm 1 mps 748 mmHg 80%
05:00 +21°C° 0 mm 1 mps 748 mmHg 72%
06:00 +23°C° 0 mm 2 mps 748 mmHg 64%
07:00 +24°C° 0 mm 2 mps 748 mmHg 55%
08:00 +26°C° 0 mm 2 mps 748 mmHg 50%
09:00 +27°C° 0 mm 3 mps 748 mmHg 46%
10:00 +29°C° 0 mm 3 mps 747 mmHg 41%
11:00 +30°C° 0 mm 3 mps 747 mmHg 39%
12:00 +30°C° 0 mm 3 mps 747 mmHg 37%
13:00 +31°C° 0 mm 3 mps 746 mmHg 36%
14:00 +30°C° 0 mm 3 mps 746 mmHg 39%
15:00 +30°C° 0 mm 3 mps 746 mmHg 42%
16:00 +29°C° 0 mm 2 mps 746 mmHg 46%
17:00 +28°C° 0 mm 2 mps 746 mmHg 51%
18:00 +27°C° 0 mm 2 mps 745 mmHg 57%
19:00 +26°C° 0 mm 1 mps 745 mmHg 62%
20:00 +25°C° 0 mm 1 mps 745 mmHg 66%
21:00 +24°C° 0 mm 1 mps 745 mmHg 69%
22:00 +23°C° 0 mm 1 mps 745 mmHg 73%
23:00 +20°C° 0.5 mm 2 mps 745 mmHg 79%

30 Junio, Miércoles

Tiempo Temperatura Precipitaciones Viento Presión Humedad
00:00 +19°C° 0.5 mm 2 mps 745 mmHg 85%
01:00 +18°C° 0.5 mm 2 mps 745 mmHg 90%
02:00 +18°C° 0.5 mm 2 mps 745 mmHg 90%
03:00 +18°C° 0.5 mm 2 mps 745 mmHg 90%
04:00 +18°C° 0.5 mm 1 mps 745 mmHg 90%
05:00 +18°C° 0.1 mm 2 mps 745 mmHg 84%
06:00 +19°C° 0.1 mm 2 mps 745 mmHg 77%
07:00 +20°C° 0.1 mm 2 mps 745 mmHg 70%
08:00 +22°C° 0 mm 3 mps 745 mmHg 60%
09:00 +25°C° 0 mm 3 mps 745 mmHg 49%
10:00 +26°C° 0 mm 3 mps 745 mmHg 39%
11:00 +27°C° 0 mm 3 mps 745 mmHg 37%
12:00 +28°C° 0 mm 3 mps 745 mmHg 36%
13:00 +29°C° 0 mm 3 mps 745 mmHg 34%
14:00 +28°C° 0 mm 4 mps 745 mmHg 38%
15:00 +27°C° 0 mm 4 mps 745 mmHg 41%
16:00 +27°C° 0 mm 5 mps 745 mmHg 45%
17:00 +25°C° 0 mm 4 mps 746 mmHg 49%
18:00 +22°C° 0 mm 4 mps 746 mmHg 54%
19:00 +21°C° 0 mm 4 mps 746 mmHg 58%
20:00 +19°C° 0 mm 3 mps 747 mmHg 66%
21:00 +17°C° 0 mm 3 mps 747 mmHg 75%
22:00 +15°C° 0 mm 2 mps 747 mmHg 83%
23:00 +14°C° 0 mm 2 mps 747 mmHg 86%
Mostrar más

Necesitamos Su Consentimiento

Meteoprog y nuestros Proveedores de Servicios pueden almacenar y acceder a sus datos personales como cookies, identificadores de dispositivo u otras tecnologías similares de su dispositivo y procesar dichos datos para personalizar contenido y anuncios, además de ofrecer funciones de redes sociales y analizar el tráfico.

  • Almacenar y/o acceder a información en su dispositivo

    Se puede almacenar o acceder a cookies, identificadores de dispositivo u otra información de su dispositivo para los fines anteriormente indicados.

  • Anuncios y contenido personalizados, medición de anuncios y contenido, percepciones del público, y desarrollo de productos

    Los anuncios y el contenido pueden personalizarse en base a su perfil. Se pueden añadir más datos para personalizar mejor los anuncios y contenidos. Se puede medir el rendimiento de los anuncios y contenidos. Se puede obtener la percepción sobre el público que ha visto los anuncios y contenidos. Dichos datos pueden usarse para desarrollar o mejorar la experiencia del usuario, sistemas y software.

Al hacer clic en ‘Estoy De Acuerdo’ usted permitirá el uso de las cookies, identificadores de dispositivo, balizas web u otras tecnologías similares indicadas. Su configuración puede cambiarse desde el navegador de su dispositivo.

Para ciertos fines, los intereses legítimos pueden ser considerados por encima del consentimiento. Puede leer más sobre ello en nuestra Política de Privacidad y Cookies.